Location: Chruszcz�w
(50.3333°N, 18.9000°E)
Time: 00:20:40
(UTC+00:00)

Daily predictions for brighter satellites

Satellite Brightness Start Highest point End
(mag) Time Altitude Azimuth Time Altitude Azimuth Time Altitude Azimuth
ATLAS 3B R/B 4.5 01:49:44 25° NE 01:49:44 25° NE 01:53:26 10° ENE
CENTAUR R/B 3.9 02:10:28 43° NNE 02:10:28 43° NNE 02:18:24 10° E
USA 215 4.4 02:05:50 10° E 02:09:47 38° ENE 02:09:47 38° ENE
Cosmos 1697 Rocket 4.3 02:33:28 31° E 02:33:28 31° E 02:37:12 10° NE
USA 238 DEB 4.1 02:42:26 63° E 02:42:26 63° E 02:48:41 10° SE
USA 238 4.1 02:42:31 63° E 02:42:31 63° E 02:48:47 10° SE
Cosmos 2344 3.9 02:59:54 46° S 03:01:55 59° ESE 03:09:56 10° NE
Lacrosse 5 rocket 3.6 03:08:33 24° NE 03:08:33 24° NE 03:10:32 10° ENE
COSMOS 2455 4.2 03:08:11 21° SSE 03:11:26 36° ESE 03:16:51 10° NE
Cosmos 2263 Rocket 3.1 03:18:49 36° N 03:20:28 45° NE 03:25:53 10° SE
Cosmos 1953 4.0 03:27:09 30° NE 03:27:09 30° NE 03:29:40 10° NNE
CZ-2C R/B 3.8 03:25:24 10° NNE 03:27:49 29° N 03:27:49 29° N
Cosmos 2327 Rocket 4.5 03:34:31 63° SSW 03:34:31 63° SSW 03:39:43 10° S
Cosmos 2341 Rocket 4.4 03:27:23 10° N 03:33:38 61° ENE 03:39:46 10° SSE
NOSS 3-2 (C) 3.9 03:31:22 49° NW 03:33:46 88° NE 03:42:07 10° SE
Nadezhda 1 Rocket 3.8 03:33:14 28° S 03:36:37 89° E 03:42:45 10° N
NOSS 2-2 (C) 4.5 03:38:32 40° ENE 03:38:32 40° ENE 03:41:27 10° NE
ATLAS 3B R/B 3.0 03:36:59 37° NNW 03:39:38 61° NE 03:46:25 10° ESE
Cosmos 2278 3.6 03:42:07 57° SSW 03:43:21 85° ESE 03:49:06 10° NNE
NOSS 2-2 (E) 4.1 03:48:23 47° NE 03:48:23 47° NE 03:51:39 10° NE
Cosmos 1538 Rocket 4.0 03:46:11 51° SSW 03:47:34 83° ESE 03:52:53 10° NNE
SKYMED 2 4.0 03:43:37 10° SSE 03:47:01 55° SSE 03:47:01 55° SSE
CZ-3 R/B 4.4 03:41:00 21° SW 03:49:05 27° SSW 03:56:37 10° SSE
Cosmos 1758 Rocket 3.8 03:49:50 62° SSE 03:49:50 62° SSE 03:53:33 10° SSE
Cosmos 2369 3.6 03:52:45 64° WNW 03:53:02 65° WNW 03:58:46 10° NNE
NOSS 3-2 (A) 4.0 03:52:25 47° WNW 03:54:26 59° SW 04:02:36 10° SSE
USA 215 3.2 03:48:39 10° SE 03:55:11 73° SW 03:57:09 48° WNW
Cosmos 972 Rocket 4.2 03:51:53 29° NNW 03:55:14 81° WSW 04:00:53 10° SSE
SL-16 R/B 4.2 03:50:36 10° SSE 03:55:21 28° ESE 04:00:07 10° NE
Cosmos 1726 3.2 03:53:21 10° SSE 03:56:52 44° E 04:00:22 10° NNE
Timation 1 Rocket 4.3 03:56:00 34° NNW 03:58:49 85° ENE 04:04:51 10° SSE
FENGYUN 3A 4.1 03:55:21 10° NNE 04:00:43 61° E 04:06:04 10° S
CENTAUR R/B 3.1 03:57:40 32° NW 04:02:00 85° SW 04:10:43 10° SE
ADEOS Rocket 3.9 03:57:38 10° SE 04:02:47 43° ENE 04:08:13 10° N
Cosmos 2218 Rocket 4.5 03:56:47 10° N 04:03:10 63° ENE 04:09:27 10° SSE
Okean O Rocket 3.1 04:00:42 10° NNE 04:04:52 37° E 04:08:59 10° SSE
STARLINK-69 4.4 04:05:03 40° S 04:05:46 45° SSE 04:09:38 10° ENE
FALCON 9 DEB 3.7 04:07:15 57° ENE 04:07:15 57° ENE 04:10:16 10° E
STARLINK-21 4.5 04:06:25 37° S 04:07:16 43° SSE 04:11:07 10° ENE
Cosmos 1980 Rocket 2.1 04:05:29 26° SSW 04:08:50 85° WNW 04:14:33 10° NNE
STARLINK-45 4.3 04:08:20 41° S 04:09:08 48° SSE 04:13:01 10° ENE
STARLINK-43 3.8 04:10:03 54° NNE 04:10:03 54° NNE 04:13:22 10° ENE
STARLINK-70 4.3 04:09:45 39° S 04:10:39 47° SSE 04:14:33 10° ENE
STARLINK-26 3.4 04:11:37 69° E 04:11:37 69° E 04:14:45 10° ENE
Cosmos 2154 Rocket 4.1 04:05:44 10° NNW 04:11:37 47° W 04:17:29 10° SSW
STARLINK-76 4.3 04:11:10 37° S 04:12:13 47° SSE 04:16:05 10° ENE
STARLINK-61 3.6 04:12:49 61° SSW 04:13:15 67° SSE 04:17:11 10° ENE
Cosmos 1825 Rocket 3.4 04:13:29 65° WNW 04:13:41 66° W 04:17:59 10° S
STARLINK 4.3 04:12:47 37° SSW 04:13:52 48° SSE 04:17:46 10° ENE
STARLINK-75 3.9 04:13:58 46° S 04:14:38 53° SSE 04:18:23 10° ENE
STARLINK-32 4.3 04:14:22 37° SSW 04:15:30 49° SSE 04:19:25 10° ENE
SJ-12 3.8 04:11:30 10° NNE 04:15:36 89° W 04:19:40 10° SSW
Cosmos 1697 Rocket 2.9 04:15:14 45° WNW 04:16:00 47° NW 04:21:27 10° NNE
STARLINK-40 4.2 04:15:58 36° SSW 04:17:10 50° SSE 04:21:06 10° ENE
Abrixas rocket 3.9 04:19:21 23° S 04:19:21 23° S 04:21:03 10° SE
STARLINK-44 4.2 04:17:32 36° SSW 04:18:48 51° SSE 04:22:43 10° ENE
Cosmos 1680 Rocket 4.2 04:14:47 10° S 04:19:59 57° ESE 04:25:13 10° NNE
STARLINK-37 4.1 04:19:18 37° SSW 04:20:34 54° SSE 04:24:31 10° ENE
Cosmos 2058 Rocket 4.0 04:16:30 10° SSE 04:20:44 50° E 04:24:59 10° NNE
SL-4 R/B 3.7 04:22:06 16° SSW 04:22:06 16° SSW 04:23:25 10° S
STARLINK-36 4.1 04:20:43 35° SSW 04:22:06 53° SSE 04:26:03 10° ENE
STARLINK-41 4.0 04:21:02 38° SSW 04:22:08 53° SSE 04:25:52 10° ENE
Cosmos 1371 Rocket 4.2 04:17:53 16° NNW 04:22:14 73° ENE 04:27:33 10° SSE
Cosmos 1959 Rocket 4.5 04:17:26 10° N 04:23:36 83° E 04:29:45 10° S
STARLINK-68 4.0 04:22:35 37° SSW 04:23:55 58° SSE 04:27:54 10° ENE
Cosmos 1908 3.9 04:20:46 10° S 04:24:35 55° E 04:28:25 10° NNE
ALOS 2.1 04:20:07 10° NNE 04:24:49 81° WNW 04:29:29 10° SSW
ATLAS 2AS CENTAUR R/B 3.3 04:17:05 10° SSW 04:25:02 73° SE 04:32:59 10° NE
STARLINK-63 4.0 04:24:03 35° SSW 04:25:29 58° SSE 04:29:28 10° ENE
STARLINK-29 3.1 04:25:44 66° NNW 04:26:04 73° NNE 04:29:36 10° ESE
EXPRESS MD2 2.6 04:26:43 72° SE 04:26:43 72° SE 04:28:56 10° E
STARLINK-52 3.1 04:26:40 64° NNW 04:27:00 70° NNE 04:30:30 10° E
STARLINK-35 4.0 04:25:29 33° SW 04:27:03 57° SSE 04:31:00 10° ENE
SOZ 4.2 04:27:37 64° N 04:27:37 64° N 04:29:49 10° E
STARLINK 3.9 04:27:00 33° SSW 04:28:24 55° SSE 04:32:08 10° ENE
STARLINK-51 4.0 04:27:05 32° SW 04:28:41 58° SSE 04:32:40 10° ENE
Genesis I 3.0 04:28:12 57° WNW 04:28:50 71° SW 04:32:39 10° SSE
Cosmos 1484 Rocket 4.4 04:25:57 10° N 04:27:18 20° N 04:27:18 20° N
Meteor 1-11 4.3 04:23:52 10° N 04:29:30 80° ENE 04:35:08 10° SSE
STARLINK-30 3.9 04:28:39 32° SW 04:30:19 60° SSE 04:34:19 10° ENE
Lacrosse 5 3.9 04:27:37 10° S 04:31:50 27° SE 04:36:03 10° ENE
USA 238 DEB 4.5 04:29:55 30° W 04:31:51 34° WSW 04:38:21 10° S
USA 238 4.4 04:30:00 30° W 04:31:59 34° WSW 04:38:27 10° S
STARLINK-72 3.9 04:30:16 31° SW 04:32:00 61° SSE 04:35:59 10° ENE
CZ-4B R/B 4.1 04:28:16 10° N 04:30:59 28° NNW 04:30:59 28° NNW
STARLINK-33 3.5 04:32:13 40° SW 04:33:18 66° SSE 04:36:53 10° ENE
STARLINK-50 3.9 04:31:50 30° SW 04:33:38 62° SSE 04:37:37 10° ENE
Cosmos 2227 4.4 04:31:36 29° NW 04:34:04 49° WSW 04:39:28 10° S
Cosmos 1606 Rocket 3.5 04:30:57 10° SSW 04:35:22 65° WNW 04:39:47 10° N
STARLINK-59 3.8 04:33:34 30° SW 04:35:23 65° SSE 04:39:23 10° ENE
STARLINK-66 3.4 04:34:45 39° SW 04:35:56 69° SSE 04:39:30 10° ENE
COSMO-SKYMED 1 3.3 04:32:15 10° SSW 04:35:40 33° WSW 04:35:40 33° WSW
Cosmos 1726 Rocket 3.4 04:32:13 10° SSW 04:36:40 77° W 04:41:07 10° N
Cosmos 2366 rocket 4.0 04:30:17 10° N 04:36:40 84° W 04:43:02 10° S
STARLINK-56 3.8 04:35:02 29° SW 04:36:57 65° SSE 04:40:57 10° ENE
Cosmos 2112 Rocket 4.4 04:31:58 10° S 04:37:17 68° ESE 04:42:37 10° NNE
Cosmos 1703 3.2 04:35:28 21° NNW 04:38:03 65° W 04:41:56 10° S
STARLINK-55 3.3 04:37:13 38° SW 04:38:26 72° SSE 04:42:00 10° ENE
Starlink (trailer) 3.8 04:36:37 28° SW 04:38:35 66° SSE 04:42:36 10° ENE
Helios 1A Rocket 3.5 04:35:32 10° NNE 04:39:38 60° ESE 04:43:43 10° S
STARLINK-38 3.7 04:38:14 28° SW 04:40:15 68° SSE 04:44:16 10° ENE
STARLINK-28 3.2 04:39:14 38° SW 04:40:27 77° SSE 04:44:00 10° ENE
DMSP B5D1-3 4.4 04:35:55 10° S 04:41:01 71° WSW 04:46:08 10° NNW
STARLINK-65 3.7 04:39:48 27° SW 04:41:54 69° SSE 04:45:55 10° ENE
STARLINK-53 3.7 04:41:32 27° SW 04:43:39 72° SSE 04:47:40 10° ENE
STARLINK-80 3.6 04:43:57 38° WNW 04:45:07 57° N 04:48:53 10° ENE
Lacrosse 5 rocket 2.5 04:44:11 24° NW 04:46:09 36° N 04:50:17 10° ENE
Cosmos 2278 Rocket 4.3 04:42:29 10° N 04:46:29 19° NE 04:50:29 10° E
NOSS 2-2 (D) 3.9 04:48:16 32° WNW 04:49:14 38° NNW 04:53:26 10° NE
Cosmos 1624 Rocket 3.9 04:45:53 11° NNW 04:50:54 79° WSW 04:56:05 10° SSE
CZ-4B DEB 4.2 04:45:31 10° N 04:51:01 65° WNW 04:56:29 10° SSW
Cosmos 2228 3.3 04:51:51 10° SSW 04:56:04 45° WNW 05:00:19 10° N
STARLINK-58 3.6 04:54:10 21° WSW 04:56:48 82° SSE 05:00:51 10° ENE
COSMOS 2455 2.9 04:51:25 11° SW 04:57:11 55° NW 05:03:06 10° NNE
Cosmos 1437 3.8 04:55:32 10° N 04:58:28 42° ENE 05:01:22 10° SSE
STARLINK-62 3.5 04:55:51 20° WSW 04:58:31 84° SSE 05:02:33 10° ENE
Cosmos 2322 Rocket 2.6 04:53:19 10° SSW 04:58:56 69° ESE 05:04:37 10° NNE
STARLINK-48 3.6 05:00:06 26° WNW 05:02:05 59° N 05:05:57 10° ENE
Cosmos 1953 3.6 05:02:55 22° WNW 05:02:55 22° WNW 05:05:39 10° NNW
METEOR-M 4.4 04:58:08 10° N 05:03:14 46° WNW 05:08:18 10° SW
Cosmos 2263 Rocket 2.7 05:00:32 17° NW 05:04:20 37° WSW 05:09:30 10° S
Cosmos 2056 Rocket 3.6 05:00:37 10° NNW 05:06:00 63° WSW 05:11:21 10° S
STARLINK-60 3.6 05:06:16 24° W 05:07:52 45° SSW 05:11:06 10° SE
CZ-2C R/B 4.1 05:05:09 10° NNW 05:07:13 15° NW 05:07:13 15° NW
STARLINK-42 3.3 05:05:33 18° WSW 05:08:13 87° NNW 05:12:00 10° ENE
STARLINK 1014 4.4 05:06:56 10° SSW 05:09:39 33° SSE 05:12:23 10° E
SL-8 Rocket 4.4 05:06:29 10° NNW 05:12:10 39° W 05:17:48 10° SSW
Cosmos 923 Rocket 4.3 05:08:15 10° SW 05:13:20 47° WNW 05:18:29 10° NNE
STARLINK-64 3.3 05:11:17 16° WSW 05:14:17 84° NNW 05:18:06 10° ENE
Cosmos 2181 Rocket 4.2 05:08:24 10° SSW 05:14:23 47° WNW 05:20:30 10° N
Cosmos 2344 4.0 05:09:57 12° W 05:16:41 48° NNW 05:25:21 10° NE
Cosmos 1844 Rocket 2.9 05:11:51 10° NNW 05:17:30 74° ENE 05:23:09 10° SE
STARLINK-34 3.5 05:16:26 13° WSW 05:19:57 81° NNW 05:24:01 10° ENE
STARLINK-24 3.5 05:18:01 13° WSW 05:21:37 81° NNW 05:25:39 10° ENE
SMAP 3.1 05:18:20 10° NNE 05:23:03 89° SE 05:27:42 10° SSW
STARLINK-81 3.5 05:19:20 12° WSW 05:23:05 82° NNW 05:27:08 10° ENE
AQUARIUS 4.2 05:20:10 10° NNE 05:24:42 87° ESE 05:29:12 10° SSW
STARLINK-54 3.5 05:21:11 12° WSW 05:24:55 79° NNW 05:28:58 10° ENE
STARLINK-77 3.5 05:22:30 11° WSW 05:26:23 80° NNW 05:30:26 10° ENE
STARLINK-25 3.5 05:24:08 11° WSW 05:28:04 79° NNW 05:32:07 10° ENE
STARLINK-71 3.5 05:26:00 11° WSW 05:29:55 75° NNW 05:33:58 10° ENE
ATLAS 3B R/B 3.2 05:24:15 11° NW 05:30:08 40° WSW 05:36:28 10° S
STARLINK 1033 4.3 05:26:40 10° SW 05:30:11 46° SSE 05:33:43 10° ENE
RESURS DK-1 2.7 05:26:21 10° SSW 05:30:28 73° ESE 05:34:37 10° NE
STARLINK-79 3.5 05:27:17 10° WSW 05:31:20 77° NNW 05:35:23 10° ENE
Cosmos 1726 3.6 05:29:55 10° WSW 05:32:20 16° WNW 05:34:45 10° NNW
STARLINK-78 3.5 05:29:00 10° WSW 05:33:01 76° NNW 05:37:04 10° ENE
Cosmos 1812 Rocket 3.6 05:30:23 10° S 05:34:45 85° E 05:39:12 10° N
STARLINK-57 3.5 05:30:47 10° WSW 05:34:48 74° NNW 05:38:51 10° ENE
STARLINK-49 3.5 05:32:17 10° WSW 05:36:19 74° NNW 05:40:22 10° ENE
STARLINK-27 3.5 05:33:58 10° W 05:38:00 74° NNW 05:42:02 10° ENE
USA 215 4.4 05:33:47 10° S 05:38:57 25° SW 05:44:09 10° WNW
SL-16 R/B 2.3 05:33:32 10° SW 05:39:07 58° NW 05:44:45 10° NNE
STARLINK-74 3.5 05:35:37 10° W 05:39:39 73° NNW 05:43:41 10° ENE
Cosmos 1943 Rocket 4.4 05:38:31 10° N 05:39:54 11° NNE 05:41:17 10° NNE
NOSS 3-4 (A) 3.5 05:34:50 10° WSW 05:40:50 63° NW 05:47:20 10° NE
NOSS 3-4 (C) 3.5 05:34:56 10° WSW 05:40:56 63° NW 05:47:26 10° NE
Okean O Rocket 2.4 05:37:15 10° N 05:41:07 30° WNW 05:44:58 10° SW
STARLINK-39 3.5 05:37:16 10° W 05:41:19 72° NNW 05:45:20 10° ENE
STARLINK 3.6 05:38:58 10° W 05:43:00 71° NNW 05:47:02 10° ENE
Okean-O 3.0 05:38:54 10° NNE 05:43:22 71° ESE 05:47:46 10° S
H-2A R/B 3.1 05:39:49 10° N 05:43:33 43° WNW 05:47:15 10° SW
FALCON 9 DEB 4.0 05:40:35 11° WNW 05:43:45 38° SSW 05:47:02 10° SE
STARLINK-69 3.6 05:40:49 10° W 05:44:50 69° NNW 05:48:52 10° ENE
STARLINK 1040 3.0 05:42:20 10° WSW 05:45:10 65° SSE 05:48:00 10° ENE
Cosmos 1821 Rocket 4.0 05:39:05 10° NNW 05:45:13 64° W 05:51:14 10° S
CZ-4B R/B 3.7 05:40:24 10° N 05:45:30 38° WNW 05:50:31 10° SW
STARLINK-21 3.6 05:42:18 10° W 05:46:20 69° NNW 05:50:22 10° ENE
Cosmos 2360 Rocket 2.4 05:40:46 10° SSW 05:46:27 82° ESE 05:52:10 10° NNE
STARLINK-43 3.4 05:44:12 10° WNW 05:47:55 71° NNE 05:51:38 10° E
STARLINK-45 3.6 05:44:13 10° W 05:48:14 67° NNW 05:52:15 10° ENE
Nadezhda 3 Rocket 4.0 05:42:10 10° SSW 05:48:18 73° W 05:54:32 10° N
ADEOS Rocket 3.5 05:43:35 10° SSW 05:48:31 34° W 05:53:41 10° NNW
STARLINK-26 3.5 05:45:06 10° W 05:48:32 53° N 05:51:58 10° ENE
Cosmos 1452 Rocket 3.5 05:43:17 10° NNW 05:48:34 71° WSW 05:53:46 10° SSE
BREEZE M DEB (TANK) 3.6 05:45:49 10° WSW 05:48:55 77° SSE 05:57:48 10° E
BREEZE M DEB (TANK) 3.9 05:36:44 10° WNW 05:49:16 54° SW 05:52:57 10° SE
Okean 3 Rocket 4.2 05:45:02 10° N 05:49:35 63° ENE 05:54:04 10° SSE
STARLINK-70 3.6 05:45:44 10° W 05:49:45 67° NNW 05:53:47 10° ENE
Envisat 3.0 05:45:41 10° NNE 05:50:48 85° WNW 05:55:54 10° SSW
STARLINK-76 3.6 05:47:16 10° W 05:51:18 67° NNW 05:55:19 10° ENE
Cosmos 1844 3.7 05:46:06 10° NNW 05:51:42 80° WSW 05:57:15 10° SSE
CENTAUR R/B 4.2 05:45:34 10° WNW 05:52:05 27° WSW 05:58:58 10° SSW
STARLINK-61 3.7 05:48:11 10° W 05:52:05 59° N 05:56:00 10° ENE
NOAA 12 4.1 05:46:52 10° NNE 05:52:11 83° WNW 05:57:30 10° SSW
STARLINK 1044 3.8 05:48:43 10° SW 05:52:22 64° SSE 05:56:02 10° ENE
Cosmos 1300 3.0 05:48:42 10° SSW 05:52:23 46° WNW 05:56:06 10° N
Cosmos 2219 Rocket 4.1 05:47:30 10° S 05:52:36 36° ESE 05:57:45 10° NE
IRS-1C Rocket 4.1 05:47:34 10° N 05:52:48 66° WNW 05:58:01 10° SSW
STARLINK 3.6 05:48:57 10° W 05:52:58 67° NNW 05:57:00 10° ENE
STARLINK-75 3.5 05:49:13 10° W 05:53:01 62° N 05:56:51 10° ENE
Lacrosse 4 Rocket 3.9 05:52:14 10° N 05:53:20 11° NNE 05:54:28 10° NE
Cosmos 1408 3.6 05:50:02 10° N 05:53:41 49° ENE 05:57:17 10° SSE
Cosmos 1980 Rocket 3.4 05:49:21 10° W 05:53:43 22° NW 05:58:05 10° NNE
CZ-2C R/B 3.3 05:48:40 10° SSE 05:53:51 59° ENE 05:59:11 10° N
STARLINK-32 3.6 05:50:36 10° W 05:54:37 66° N 05:58:38 10° ENE
Cosmos 2237 4.3 05:49:48 10° SSW 05:55:31 90° ESE 06:01:17 10° NNE
Cosmos 1605 Rocket 4.5 05:49:36 10° N 05:56:02 71° ENE 06:02:21 10° SSE
STARLINK-40 3.6 05:52:16 10° W 05:56:18 66° N 06:00:19 10° ENE
STARLINK-44 3.6 05:53:55 10° W 05:57:55 65° N 06:01:57 10° ENE
Alouette 2 Rocket 3.4 05:54:13 10° SSW 05:58:30 55° WNW 06:02:03 10° N
Cosmos 2058 Rocket 4.3 05:55:43 10° WSW 05:59:01 21° WNW 06:02:20 10° NNW
Cosmos 332 Rocket 4.4 05:54:35 10° NNW 05:59:21 58° ENE 06:04:05 10° SE
STARLINK-37 3.6 05:55:43 10° W 05:59:44 64° N 06:03:44 10° ENE
STARLINK-41 3.5 05:56:40 10° W 06:00:28 62° N 06:04:16 10° ENE
Cosmos 158 Rocket 4.4 05:56:41 10° WSW 06:01:12 36° NW 06:05:49 10° NNE
Cosmos 1697 Rocket 4.3 05:58:20 10° WNW 06:01:27 15° NNW 06:04:34 10° N
Cosmos 371 Rocket 3.5 05:56:45 10° NNW 06:01:39 75° ENE 06:06:29 10° SSE
